Time,TemperatureF,DewpointF,PressureIn,WindDirection,WindDirectionDegrees,WindSpeedMPH,WindSpeedGustMPH,Humidity,HourlyPrecipIn,Conditions,Clouds,dailyrainin,SoftwareType,DateUTC
2017-07-26 00:02:00,66.3,59.9,30.19,North,11,0.0,0.0,80,0.00,,,0.00,WeatherCatV2.22B31,2017-07-26 04:02:00,
2017-07-26 00:07:00,66.1,59.7,30.19,North,11,0.0,0.0,80,0.00,,,0.00,WeatherCatV2.22B31,2017-07-26 04:07:00,
2017-07-26 00:12:00,66.1,60.1,30.19,North,11,0.0,0.0,81,0.00,,,0.00,WeatherCatV2.22B31,2017-07-26 04:12:00,
2017-07-26 00:17:00,66.0,60.0,30.19,North,11,0.0,0.0,81,0.00,,,0.00,WeatherCatV2.22B31,2017-07-26 04:17:00,
2017-07-26 00:22:00,66.0,60.0,30.19,North,11,0.0,0.0,81,0.00,,,0.00,WeatherCatV2.22B31,2017-07-26 04:22:00,
2017-07-26 00:27:00,65.8,59.8,30.19,North,11,0.0,0.0,81,0.00,,,0.00,WeatherCatV2.22B31,2017-07-26 04:27:00,
2017-07-26 00:32:00,65.6,59.6,30.19,North,11,0.0,0.0,81,0.00,,,0.00,WeatherCatV2.22B31,2017-07-26 04:32:00,
2017-07-26 00:42:00,65.5,59.8,30.19,North,11,0.0,0.0,82,0.00,,,0.00,WeatherCatV2.22B31,2017-07-26 04:42:00,
2017-07-26 00:43:00,65.5,59.8,30.19,North,11,0.0,0.0,82,0.00,,,0.00,WeatherCatV2.22B31,2017-07-26 04:43:00,
2017-07-26 00:48:00,65.3,59.7,30.19,North,11,0.0,0.0,82,0.00,,,0.00,WeatherCatV2.22B31,2017-07-26 04:48:00,
2017-07-26 00:53:00,65.2,59.6,30.19,North,11,0.0,0.0,82,0.00,,,0.00,WeatherCatV2.22B31,2017-07-26 04:53:00,
2017-07-26 00:58:00,65.2,59.6,30.19,North,11,0.0,0.0,82,0.00,,,0.00,WeatherCatV2.22B31,2017-07-26 04:58:00,
2017-07-26 01:03:00,65.0,59.4,30.19,North,11,0.0,0.0,82,0.00,,,0.00,WeatherCatV2.22B31,2017-07-26 05:03:00,
2017-07-26 01:08:00,64.8,59.2,30.19,North,11,0.0,0.0,82,0.00,,,0.00,WeatherCatV2.22B31,2017-07-26 05:08:00,
2017-07-26 01:13:00,64.8,59.5,30.19,North,11,0.0,0.0,83,0.00,,,0.00,WeatherCatV2.22B31,2017-07-26 05:13:00,
2017-07-26 01:18:00,64.7,59.4,30.19,North,11,0.0,0.0,83,0.00,,,0.00,WeatherCatV2.22B31,2017-07-26 05:18:00,
2017-07-26 01:23:00,64.5,59.2,30.19,North,11,0.0,0.0,83,0.00,,,0.00,WeatherCatV2.22B31,2017-07-26 05:23:00,
2017-07-26 01:28:00,64.5,59.2,30.19,North,11,0.0,0.0,83,0.00,,,0.00,WeatherCatV2.22B31,2017-07-26 05:28:00,
2017-07-26 01:33:00,64.3,59.4,30.19,North,11,0.0,0.0,84,0.00,,,0.00,WeatherCatV2.22B31,2017-07-26 05:33:00,
2017-07-26 01:38:00,64.2,59.3,30.19,North,11,0.0,0.0,84,0.00,,,0.00,WeatherCatV2.22B31,2017-07-26 05:38:00,
2017-07-26 01:43:00,64.2,59.3,30.19,North,11,0.0,0.0,84,0.00,,,0.00,WeatherCatV2.22B31,2017-07-26 05:43:00,
2017-07-26 01:48:00,64.0,59.1,30.19,North,11,0.0,0.0,84,0.00,,,0.00,WeatherCatV2.22B31,2017-07-26 05:48:00,
2017-07-26 01:53:00,63.9,59.0,30.19,North,11,0.0,0.0,84,0.00,,,0.00,WeatherCatV2.22B31,2017-07-26 05:53:00,
2017-07-26 01:58:00,63.9,59.0,30.19,North,11,0.0,0.0,84,0.00,,,0.00,WeatherCatV2.22B31,2017-07-26 05:58:00,
2017-07-26 02:03:00,63.7,59.1,30.18,North,11,0.0,0.0,85,0.00,,,0.00,WeatherCatV2.22B31,2017-07-26 06:03:00,
2017-07-26 02:08:00,63.7,59.1,30.18,North,11,0.0,0.0,85,0.00,,,0.00,WeatherCatV2.22B31,2017-07-26 06:08:00,
2017-07-26 02:13:00,63.5,58.9,30.18,North,11,0.0,0.0,85,0.00,,,0.00,WeatherCatV2.22B31,2017-07-26 06:13:00,
2017-07-26 02:18:00,63.4,58.8,30.18,North,11,0.0,0.0,85,0.00,,,0.00,WeatherCatV2.22B31,2017-07-26 06:18:00,
2017-07-26 02:23:00,63.2,58.6,30.18,North,11,0.0,0.0,85,0.00,,,0.00,WeatherCatV2.22B31,2017-07-26 06:23:00,
2017-07-26 02:28:00,63.2,58.9,30.18,North,11,0.0,0.0,86,0.00,,,0.00,WeatherCatV2.22B31,2017-07-26 06:28:00,
2017-07-26 02:33:00,63.1,58.8,30.19,North,11,0.0,0.0,86,0.00,,,0.00,WeatherCatV2.22B31,2017-07-26 06:33:00,
2017-07-26 02:38:00,63.1,58.8,30.19,North,11,0.0,0.0,86,0.00,,,0.00,WeatherCatV2.22B31,2017-07-26 06:38:00,
2017-07-26 02:43:00,63.1,58.8,30.19,North,11,0.0,0.0,86,0.00,,,0.00,WeatherCatV2.22B31,2017-07-26 06:43:00,
2017-07-26 02:48:00,62.9,58.6,30.18,North,11,0.0,0.0,86,0.00,,,0.00,WeatherCatV2.22B31,2017-07-26 06:48:00,
2017-07-26 02:53:00,62.7,58.5,30.18,North,11,0.0,0.0,86,0.00,,,0.00,WeatherCatV2.22B31,2017-07-26 06:53:00,
2017-07-26 02:58:00,62.6,58.3,30.18,North,11,0.0,0.0,86,0.00,,,0.00,WeatherCatV2.22B31,2017-07-26 06:58:00,
2017-07-26 03:04:00,62.6,58.3,30.17,North,11,0.0,0.0,86,0.00,,,0.00,WeatherCatV2.22B31,2017-07-26 07:04:00,
2017-07-26 03:09:00,62.4,58.5,30.17,North,11,0.0,0.0,87,0.00,,,0.00,WeatherCatV2.22B31,2017-07-26 07:09:00,
2017-07-26 03:14:00,62.4,58.5,30.17,North,11,0.0,0.0,87,0.00,,,0.00,WeatherCatV2.22B31,2017-07-26 07:14:00,
2017-07-26 03:19:00,62.3,58.4,30.16,North,11,0.0,0.0,87,0.00,,,0.00,WeatherCatV2.22B31,2017-07-26 07:19:00,
2017-07-26 03:24:00,62.3,58.4,30.16,North,11,0.0,0.0,87,0.00,,,0.00,WeatherCatV2.22B31,2017-07-26 07:24:00,
2017-07-26 03:29:00,62.1,58.2,30.16,North,11,0.0,0.0,87,0.00,,,0.00,WeatherCatV2.22B31,2017-07-26 07:29:00,
2017-07-26 03:34:00,62.0,58.1,30.16,North,11,0.0,0.0,87,0.00,,,0.00,WeatherCatV2.22B31,2017-07-26 07:34:00,
2017-07-26 03:39:00,61.8,57.9,30.16,North,11,0.0,0.0,87,0.00,,,0.00,WeatherCatV2.22B31,2017-07-26 07:39:00,
2017-07-26 03:44:00,61.8,57.9,30.16,North,11,0.0,0.0,87,0.00,,,0.00,WeatherCatV2.22B31,2017-07-26 07:44:00,
2017-07-26 03:49:00,61.6,57.7,30.16,North,11,0.0,0.0,87,0.00,,,0.00,WeatherCatV2.22B31,2017-07-26 07:49:00,
2017-07-26 03:54:00,61.5,57.6,30.16,North,11,0.0,0.0,87,0.00,,,0.00,WeatherCatV2.22B31,2017-07-26 07:54:00,
2017-07-26 03:59:00,61.5,57.9,30.16,North,11,0.0,0.0,88,0.00,,,0.00,WeatherCatV2.22B31,2017-07-26 07:59:00,
2017-07-26 04:04:00,61.3,57.7,30.16,North,11,0.0,0.0,88,0.00,,,0.00,WeatherCatV2.22B31,2017-07-26 08:04:00,
2017-07-26 04:09:00,61.3,57.7,30.16,North,11,0.0,0.0,88,0.00,,,0.00,WeatherCatV2.22B31,2017-07-26 08:09:00,
2017-07-26 04:14:00,61.3,57.7,30.16,North,11,0.0,0.0,88,0.00,,,0.00,WeatherCatV2.22B31,2017-07-26 08:14:00,
2017-07-26 04:19:00,61.2,57.6,30.16,North,11,0.0,0.0,88,0.00,,,0.00,WeatherCatV2.22B31,2017-07-26 08:19:00,
2017-07-26 04:24:00,60.9,57.3,30.16,North,11,0.0,0.0,88,0.00,,,0.00,WeatherCatV2.22B31,2017-07-26 08:24:00,
2017-07-26 04:29:00,60.7,57.1,30.17,North,11,0.0,0.0,88,0.00,,,0.00,WeatherCatV2.22B31,2017-07-26 08:29:00,
2017-07-26 04:34:00,60.7,57.1,30.17,North,11,0.0,0.0,88,0.00,,,0.00,WeatherCatV2.22B31,2017-07-26 08:34:00,
2017-07-26 04:39:00,60.5,56.9,30.17,North,11,0.0,0.0,88,0.00,,,0.00,WeatherCatV2.22B31,2017-07-26 08:39:00,
2017-07-26 04:44:00,60.5,56.9,30.18,North,11,0.0,0.0,88,0.00,,,0.00,WeatherCatV2.22B31,2017-07-26 08:44:00,
2017-07-26 04:49:00,60.4,56.8,30.18,North,11,0.0,0.0,88,0.00,,,0.00,WeatherCatV2.22B31,2017-07-26 08:49:00,
2017-07-26 04:54:00,60.4,56.8,30.18,North,11,0.0,0.0,88,0.00,,,0.00,WeatherCatV2.22B31,2017-07-26 08:54:00,
2017-07-26 04:59:00,60.4,57.1,30.18,North,11,0.0,0.0,89,0.00,,,0.00,WeatherCatV2.22B31,2017-07-26 08:59:00,
2017-07-26 05:02:00,60.4,57.1,30.18,North,11,0.0,0.0,89,0.00,,,0.00,WeatherCatV2.22B31,2017-07-26 09:02:00,
2017-07-26 05:07:00,60.2,56.9,30.18,North,11,0.0,0.0,89,0.00,,,0.01,WeatherCatV2.22B31,2017-07-26 09:07:00,
2017-07-26 05:12:00,60.2,56.9,30.18,North,11,0.0,0.0,89,0.00,,,0.01,WeatherCatV2.22B31,2017-07-26 09:12:00,
2017-07-26 05:17:00,59.9,56.7,30.18,North,11,0.0,0.0,89,0.00,,,0.01,WeatherCatV2.22B31,2017-07-26 09:17:00,
2017-07-26 05:22:00,59.9,56.7,30.18,North,11,0.0,0.0,89,0.00,,,0.01,WeatherCatV2.22B31,2017-07-26 09:22:00,
2017-07-26 05:32:00,59.6,56.3,30.18,North,11,0.0,0.0,89,0.00,,,0.01,WeatherCatV2.22B31,2017-07-26 09:32:00,
2017-07-26 05:37:00,59.5,56.2,30.18,North,11,0.0,0.0,89,0.00,,,0.01,WeatherCatV2.22B31,2017-07-26 09:37:00,
2017-07-26 05:42:00,59.3,56.0,30.18,North,11,0.0,0.0,89,0.00,,,0.01,WeatherCatV2.22B31,2017-07-26 09:42:00,
2017-07-26 05:47:00,59.3,56.0,30.18,North,11,0.0,0.0,89,0.00,,,0.01,WeatherCatV2.22B31,2017-07-26 09:47:00,
2017-07-26 05:52:00,59.3,56.0,30.18,North,11,0.0,0.0,89,0.00,,,0.01,WeatherCatV2.22B31,2017-07-26 09:52:00,
2017-07-26 05:57:00,59.5,56.2,30.18,North,11,0.0,0.0,89,0.00,,,0.01,WeatherCatV2.22B31,2017-07-26 09:57:00,
2017-07-26 06:02:00,59.5,56.2,30.16,North,11,0.0,0.0,89,0.00,,,0.01,WeatherCatV2.22B31,2017-07-26 10:02:00,
2017-07-26 06:07:00,59.3,56.0,30.16,North,11,0.0,0.0,89,0.00,,,0.01,WeatherCatV2.22B31,2017-07-26 10:07:00,
2017-07-26 06:12:00,59.2,56.0,30.16,North,11,0.0,0.0,89,0.00,,,0.01,WeatherCatV2.22B31,2017-07-26 10:12:00,
2017-07-26 06:17:00,59.2,56.0,30.16,North,11,0.0,0.0,89,0.00,,,0.01,WeatherCatV2.22B31,2017-07-26 10:17:00,
2017-07-26 06:22:00,59.0,55.8,30.16,North,11,0.0,0.0,89,0.00,,,0.01,WeatherCatV2.22B31,2017-07-26 10:22:00,
2017-07-26 06:27:00,59.0,55.8,30.16,North,11,0.0,0.0,89,0.00,,,0.01,WeatherCatV2.22B31,2017-07-26 10:27:00,
2017-07-26 06:32:00,59.0,55.8,30.16,North,11,0.0,0.0,89,0.00,,,0.01,WeatherCatV2.22B31,2017-07-26 10:32:00,
2017-07-26 06:37:00,58.9,55.7,30.16,North,11,0.0,0.0,89,0.00,,,0.01,WeatherCatV2.22B31,2017-07-26 10:37:00,
2017-07-26 06:42:00,58.9,56.0,30.16,North,11,0.0,0.0,90,0.00,,,0.01,WeatherCatV2.22B31,2017-07-26 10:42:00,
2017-07-26 06:47:00,58.9,56.0,30.16,North,11,0.0,0.0,90,0.00,,,0.01,WeatherCatV2.22B31,2017-07-26 10:47:00,
2017-07-26 06:52:00,58.9,56.0,30.16,North,11,0.0,0.0,90,0.00,,,0.01,WeatherCatV2.22B31,2017-07-26 10:52:00,
2017-07-26 06:57:00,58.9,56.0,30.16,North,11,0.0,0.0,90,0.00,,,0.01,WeatherCatV2.22B31,2017-07-26 10:57:00,
2017-07-26 07:02:00,58.9,56.0,30.16,North,11,0.0,0.0,90,0.00,,,0.01,WeatherCatV2.22B31,2017-07-26 11:02:00,
2017-07-26 07:07:00,58.9,56.0,30.16,North,11,0.0,0.0,90,0.00,,,0.01,WeatherCatV2.22B31,2017-07-26 11:07:00,
2017-07-26 07:12:00,58.9,56.0,30.16,North,11,0.0,0.0,90,0.00,,,0.01,WeatherCatV2.22B31,2017-07-26 11:12:00,
2017-07-26 07:17:00,58.9,56.0,30.16,North,11,0.0,0.0,90,0.00,,,0.01,WeatherCatV2.22B31,2017-07-26 11:17:00,
2017-07-26 07:22:00,58.9,56.0,30.16,North,11,0.0,0.0,90,0.00,,,0.01,WeatherCatV2.22B31,2017-07-26 11:22:00,
2017-07-26 07:27:00,58.9,56.0,30.16,North,11,0.0,0.0,90,0.00,,,0.01,WeatherCatV2.22B31,2017-07-26 11:27:00,
2017-07-26 07:32:00,59.0,56.1,30.16,North,11,0.0,0.0,90,0.00,,,0.01,WeatherCatV2.22B31,2017-07-26 11:32:00,
2017-07-26 07:37:00,59.2,56.3,30.16,North,11,0.0,0.0,90,0.00,,,0.01,WeatherCatV2.22B31,2017-07-26 11:37:00,
2017-07-26 07:42:00,59.3,56.4,30.16,North,11,0.0,0.0,90,0.00,,,0.01,WeatherCatV2.22B31,2017-07-26 11:42:00,
2017-07-26 07:47:00,59.5,56.6,30.16,North,11,0.0,0.0,90,0.00,,,0.01,WeatherCatV2.22B31,2017-07-26 11:47:00,
2017-07-26 07:52:00,59.6,57.0,30.16,North,11,0.0,0.0,91,0.00,,,0.01,WeatherCatV2.22B31,2017-07-26 11:52:00,
2017-07-26 07:57:00,59.8,57.2,30.16,North,11,0.0,0.0,91,0.00,,,0.01,WeatherCatV2.22B31,2017-07-26 11:57:00,
2017-07-26 08:02:00,59.9,57.3,30.16,North,11,0.0,0.0,91,0.00,,,0.01,WeatherCatV2.22B31,2017-07-26 12:02:00,
2017-07-26 08:07:00,60.1,57.5,30.16,North,11,0.0,0.0,91,0.00,,,0.01,WeatherCatV2.22B31,2017-07-26 12:07:00,
2017-07-26 08:12:00,60.4,57.8,30.16,North,11,0.0,0.0,91,0.00,,,0.01,WeatherCatV2.22B31,2017-07-26 12:12:00,
2017-07-26 08:17:00,60.5,57.9,30.17,North,11,0.0,0.0,91,0.00,,,0.01,WeatherCatV2.22B31,2017-07-26 12:17:00,
2017-07-26 08:22:00,60.7,58.0,30.17,North,11,0.0,0.0,91,0.00,,,0.01,WeatherCatV2.22B31,2017-07-26 12:22:00,
2017-07-26 08:27:00,61.0,58.3,30.17,North,11,0.0,0.0,91,0.00,,,0.01,WeatherCatV2.22B31,2017-07-26 12:27:00,
2017-07-26 08:32:00,61.2,58.5,30.18,North,11,0.0,0.0,91,0.00,,,0.01,WeatherCatV2.22B31,2017-07-26 12:32:00,
2017-07-26 08:37:00,61.3,58.7,30.18,North,11,0.0,0.0,91,0.00,,,0.01,WeatherCatV2.22B31,2017-07-26 12:37:00,
2017-07-26 08:42:00,61.5,58.8,30.18,North,11,0.0,0.0,91,0.00,,,0.01,WeatherCatV2.22B31,2017-07-26 12:42:00,
2017-07-26 08:47:00,61.8,59.1,30.18,North,11,0.0,0.0,91,0.00,,,0.01,WeatherCatV2.22B31,2017-07-26 12:47:00,
2017-07-26 08:52:00,62.0,59.3,30.18,North,11,0.0,0.0,91,0.00,,,0.01,WeatherCatV2.22B31,2017-07-26 12:52:00,
2017-07-26 08:57:00,62.3,59.6,30.18,North,11,0.0,0.0,91,0.00,,,0.01,WeatherCatV2.22B31,2017-07-26 12:57:00,
2017-07-26 09:02:00,62.4,59.7,30.17,North,11,0.0,0.0,91,0.00,,,0.01,WeatherCatV2.22B31,2017-07-26 13:02:00,
2017-07-26 09:07:00,62.7,60.0,30.17,North,11,0.0,0.0,91,0.00,,,0.01,WeatherCatV2.22B31,2017-07-26 13:07:00,
2017-07-26 09:12:00,63.1,60.4,30.17,North,11,0.0,0.0,91,0.00,,,0.01,WeatherCatV2.22B31,2017-07-26 13:12:00,
2017-07-26 09:17:00,63.2,60.5,30.16,North,11,0.0,0.0,91,0.00,,,0.01,WeatherCatV2.22B31,2017-07-26 13:17:00,
2017-07-26 09:22:00,63.5,60.8,30.16,North,11,0.0,0.0,91,0.00,,,0.01,WeatherCatV2.22B31,2017-07-26 13:22:00,
2017-07-26 09:27:00,63.7,61.0,30.16,North,11,0.0,0.0,91,0.00,,,0.01,WeatherCatV2.22B31,2017-07-26 13:27:00,
2017-07-26 09:32:00,64.0,61.3,30.17,North,11,0.0,0.0,91,0.00,,,0.01,WeatherCatV2.22B31,2017-07-26 13:32:00,
2017-07-26 09:37:00,64.2,61.2,30.17,North,11,0.0,0.0,90,0.00,,,0.01,WeatherCatV2.22B31,2017-07-26 13:37:00,
2017-07-26 09:43:00,64.3,61.3,30.17,North,11,0.0,0.0,90,0.00,,,0.01,WeatherCatV2.22B31,2017-07-26 13:43:00,
2017-07-26 09:48:00,64.5,61.5,30.17,North,11,0.0,0.0,90,0.00,,,0.01,WeatherCatV2.22B31,2017-07-26 13:48:00,
2017-07-26 09:53:00,64.7,61.4,30.17,North,11,0.0,0.0,89,0.00,,,0.01,WeatherCatV2.22B31,2017-07-26 13:53:00,
2017-07-26 09:58:00,65.2,61.5,30.17,North,11,0.0,0.0,88,0.00,,,0.01,WeatherCatV2.22B31,2017-07-26 13:58:00,
2017-07-26 10:03:00,65.5,61.5,30.17,North,11,0.0,0.0,87,0.00,,,0.01,WeatherCatV2.22B31,2017-07-26 14:03:00,
2017-07-26 10:08:00,66.0,61.3,30.17,North,11,0.0,0.0,85,0.00,,,0.01,WeatherCatV2.22B31,2017-07-26 14:08:00,
2017-07-26 10:13:00,66.3,61.3,30.17,North,11,0.0,0.0,84,0.00,,,0.01,WeatherCatV2.22B31,2017-07-26 14:13:00,
2017-07-26 10:18:00,66.9,61.6,30.18,North,11,0.0,0.0,83,0.00,,,0.01,WeatherCatV2.22B31,2017-07-26 14:18:00,
2017-07-26 10:23:00,67.3,61.6,30.18,North,11,0.0,0.0,82,0.00,,,0.01,WeatherCatV2.22B31,2017-07-26 14:23:00,
2017-07-26 10:28:00,67.6,61.2,30.18,North,11,0.0,0.0,80,0.00,,,0.01,WeatherCatV2.22B31,2017-07-26 14:28:00,
2017-07-26 10:33:00,67.9,61.1,30.16,North,11,0.0,0.0,79,0.00,,,0.01,WeatherCatV2.22B31,2017-07-26 14:33:00,
2017-07-26 10:38:00,68.3,61.5,30.16,North,11,0.0,0.0,79,0.00,,,0.01,WeatherCatV2.22B31,2017-07-26 14:38:00,
2017-07-26 10:43:00,68.8,62.4,30.16,North,11,0.0,0.0,80,0.00,,,0.01,WeatherCatV2.22B31,2017-07-26 14:43:00,
2017-07-26 10:48:00,69.1,61.6,30.16,North,11,0.0,0.0,77,0.00,,,0.01,WeatherCatV2.22B31,2017-07-26 14:48:00,
2017-07-26 10:53:00,69.4,62.2,30.16,North,11,0.0,0.0,78,0.00,,,0.01,WeatherCatV2.22B31,2017-07-26 14:53:00,
2017-07-26 10:58:00,69.6,62.1,30.16,North,11,0.0,0.0,77,0.00,,,0.01,WeatherCatV2.22B31,2017-07-26 14:58:00,
2017-07-26 11:03:00,69.9,61.6,30.16,NNE,12,0.0,1.0,75,0.00,,,0.01,WeatherCatV2.22B31,2017-07-26 15:03:00,
2017-07-26 11:08:00,70.4,62.5,30.16,NNE,12,0.0,0.0,76,0.00,,,0.01,WeatherCatV2.22B31,2017-07-26 15:08:00,
2017-07-26 11:13:00,70.8,62.5,30.16,NNE,12,0.0,0.0,75,0.00,,,0.01,WeatherCatV2.22B31,2017-07-26 15:13:00,
2017-07-26 11:18:00,71.1,61.2,30.16,NNE,12,0.0,0.0,71,0.00,,,0.01,WeatherCatV2.22B31,2017-07-26 15:18:00,
2017-07-26 11:23:00,71.5,62.4,30.16,NNE,12,0.0,0.0,73,0.00,,,0.01,WeatherCatV2.22B31,2017-07-26 15:23:00,
2017-07-26 11:28:00,71.8,61.1,30.16,NNE,12,0.0,0.0,69,0.00,,,0.01,WeatherCatV2.22B31,2017-07-26 15:28:00,
2017-07-26 11:29:00,71.8,61.1,30.16,NNE,12,0.0,0.0,69,0.00,,,0.01,WeatherCatV2.22B31,2017-07-26 15:29:00,
2017-07-26 11:34:00,72.1,60.9,30.16,NNE,12,0.0,0.0,68,0.00,,,0.01,WeatherCatV2.22B31,2017-07-26 15:34:00,
2017-07-26 11:39:00,72.3,61.1,30.16,NNE,12,0.0,0.0,68,0.00,,,0.01,WeatherCatV2.22B31,2017-07-26 15:39:00,
2017-07-26 11:44:00,72.7,61.9,30.16,NNE,15,2.0,2.0,69,0.00,,,0.01,WeatherCatV2.22B31,2017-07-26 15:44:00,
2017-07-26 11:49:00,73.0,61.8,30.16,NNE,15,0.0,0.0,68,0.00,,,0.01,WeatherCatV2.22B31,2017-07-26 15:49:00,
2017-07-26 11:51:00,73.2,61.6,30.16,NNE,15,0.0,0.0,67,0.00,,,0.01,WeatherCatV2.22B31,2017-07-26 15:51:00,
2017-07-26 11:56:00,73.7,62.0,30.16,NNE,15,0.0,0.0,67,0.00,,,0.01,WeatherCatV2.22B31,2017-07-26 15:56:00,
2017-07-26 12:01:00,74.0,61.9,30.15,NNE,15,0.0,0.0,66,0.00,,,0.01,WeatherCatV2.22B31,2017-07-26 16:01:00,
2017-07-26 12:06:00,74.2,62.5,30.15,NNE,15,0.0,0.0,67,0.00,,,0.01,WeatherCatV2.22B31,2017-07-26 16:06:00,
2017-07-26 12:07:00,74.4,62.7,30.15,NNE,15,0.0,0.0,67,0.00,,,0.01,WeatherCatV2.22B31,2017-07-26 16:07:00,
2017-07-26 12:12:00,74.6,62.9,30.15,NNE,15,0.0,0.0,67,0.00,,,0.01,WeatherCatV2.22B31,2017-07-26 16:12:00,
2017-07-26 12:17:00,74.9,63.2,30.15,NNE,15,0.0,0.0,67,0.00,,,0.01,WeatherCatV2.22B31,2017-07-26 16:17:00,
2017-07-26 12:22:00,75.3,63.6,30.15,NNE,15,0.0,0.0,67,0.00,,,0.01,WeatherCatV2.22B31,2017-07-26 16:22:00,
2017-07-26 12:27:00,75.6,63.4,30.15,NNE,15,0.0,0.0,66,0.00,,,0.01,WeatherCatV2.22B31,2017-07-26 16:27:00,
2017-07-26 12:32:00,75.8,62.7,30.15,North,0,0.0,1.0,64,0.00,,,0.01,WeatherCatV2.22B31,2017-07-26 16:32:00,
2017-07-26 12:37:00,76.0,62.5,30.15,North,0,0.0,0.0,63,0.00,,,0.01,WeatherCatV2.22B31,2017-07-26 16:37:00,
2017-07-26 12:42:00,76.3,63.2,30.15,North,0,0.0,0.0,64,0.00,,,0.01,WeatherCatV2.22B31,2017-07-26 16:42:00,
2017-07-26 12:47:00,76.5,62.0,30.14,North,0,0.0,0.0,61,0.00,,,0.01,WeatherCatV2.22B31,2017-07-26 16:47:00,
2017-07-26 12:52:00,76.7,61.8,30.14,North,0,0.0,0.0,60,0.00,,,0.01,WeatherCatV2.22B31,2017-07-26 16:52:00,
2017-07-26 12:57:00,76.8,61.8,30.14,North,0,0.0,0.0,60,0.00,,,0.01,WeatherCatV2.22B31,2017-07-26 16:57:00,
2017-07-26 13:02:00,77.0,62.5,30.14,North,0,0.0,0.0,61,0.00,,,0.01,WeatherCatV2.22B31,2017-07-26 17:02:00,
2017-07-26 13:07:00,77.2,62.2,30.14,North,0,0.0,0.0,60,0.00,,,0.01,WeatherCatV2.22B31,2017-07-26 17:07:00,
2017-07-26 13:12:00,77.4,61.9,30.14,North,0,0.0,0.0,59,0.00,,,0.01,WeatherCatV2.22B31,2017-07-26 17:12:00,
2017-07-26 13:17:00,77.7,63.2,30.14,North,0,0.0,0.0,61,0.00,,,0.01,WeatherCatV2.22B31,2017-07-26 17:17:00,
2017-07-26 13:22:00,77.9,62.9,30.14,North,0,0.0,0.0,60,0.00,,,0.01,WeatherCatV2.22B31,2017-07-26 17:22:00,
2017-07-26 13:27:00,78.1,62.1,30.14,North,0,0.0,0.0,58,0.00,,,0.01,WeatherCatV2.22B31,2017-07-26 17:27:00,
2017-07-26 13:32:00,78.3,62.8,30.13,North,0,0.0,0.0,59,0.00,,,0.01,WeatherCatV2.22B31,2017-07-26 17:32:00,
2017-07-26 13:37:00,78.3,62.3,30.13,North,0,0.0,0.0,58,0.00,,,0.01,WeatherCatV2.22B31,2017-07-26 17:37:00,
2017-07-26 13:39:00,78.3,61.3,30.13,North,0,0.0,0.0,56,0.00,,,0.01,WeatherCatV2.22B31,2017-07-26 17:39:00,
2017-07-26 13:44:00,78.5,63.0,30.13,North,0,0.0,0.0,59,0.00,,,0.01,WeatherCatV2.22B31,2017-07-26 17:44:00,
2017-07-26 13:49:00,78.6,61.6,30.13,North,0,0.0,0.0,56,0.00,,,0.01,WeatherCatV2.22B31,2017-07-26 17:49:00,
2017-07-26 13:54:00,78.8,62.8,30.13,North,0,0.0,0.0,58,0.00,,,0.01,WeatherCatV2.22B31,2017-07-26 17:54:00,
2017-07-26 13:59:00,78.8,62.8,30.12,North,0,0.0,0.0,58,0.00,,,0.01,WeatherCatV2.22B31,2017-07-26 17:59:00,
2017-07-26 14:04:00,79.0,62.4,30.12,North,0,0.0,0.0,57,0.00,,,0.01,WeatherCatV2.22B31,2017-07-26 18:04:00,
2017-07-26 14:09:00,79.2,62.1,30.12,North,0,0.0,0.0,56,0.00,,,0.01,WeatherCatV2.22B31,2017-07-26 18:09:00,
2017-07-26 14:14:00,79.6,63.5,30.11,North,0,0.0,0.0,58,0.00,,,0.01,WeatherCatV2.22B31,2017-07-26 18:14:00,
2017-07-26 14:19:00,79.8,63.2,30.11,North,0,0.0,0.0,57,0.00,,,0.01,WeatherCatV2.22B31,2017-07-26 18:19:00,
2017-07-26 14:24:00,79.9,64.3,30.11,NNE,28,0.0,0.0,59,0.00,,,0.01,WeatherCatV2.22B31,2017-07-26 18:24:00,
2017-07-26 14:29:00,79.9,62.3,30.11,NNE,28,0.0,0.0,55,0.00,,,0.01,WeatherCatV2.22B31,2017-07-26 18:29:00,
2017-07-26 14:34:00,80.1,62.5,30.11,NNE,28,0.0,0.0,55,0.00,,,0.01,WeatherCatV2.22B31,2017-07-26 18:34:00,
2017-07-26 14:39:00,80.3,64.2,30.11,NNE,28,0.0,0.0,58,0.00,,,0.01,WeatherCatV2.22B31,2017-07-26 18:39:00,
2017-07-26 14:45:00,80.3,62.6,30.10,NNE,28,0.0,0.0,55,0.00,,,0.01,WeatherCatV2.22B31,2017-07-26 18:45:00,
2017-07-26 14:50:00,80.5,62.8,30.10,NNE,22,0.0,0.0,55,0.00,,,0.01,WeatherCatV2.22B31,2017-07-26 18:50:00,
2017-07-26 14:55:00,80.7,63.0,30.10,NNE,22,0.0,0.0,55,0.00,,,0.01,WeatherCatV2.22B31,2017-07-26 18:55:00,
2017-07-26 15:00:00,80.7,63.0,30.10,NNE,22,0.0,0.0,55,0.00,,,0.01,WeatherCatV2.22B31,2017-07-26 19:00:00,
2017-07-26 15:05:00,80.9,64.2,30.10,NNE,22,0.0,1.0,57,0.00,,,0.01,WeatherCatV2.22B31,2017-07-26 19:05:00,
2017-07-26 15:10:00,81.1,63.9,30.10,NNE,22,0.0,0.0,56,0.00,,,0.01,WeatherCatV2.22B31,2017-07-26 19:10:00,
2017-07-26 15:15:00,81.1,62.3,30.10,NNE,20,0.0,0.0,53,0.00,,,0.01,WeatherCatV2.22B31,2017-07-26 19:15:00,
2017-07-26 15:20:00,81.2,62.4,30.10,NNE,20,0.0,0.0,53,0.00,,,0.01,WeatherCatV2.22B31,2017-07-26 19:20:00,
2017-07-26 15:25:00,81.2,62.4,30.10,NNE,20,0.0,0.0,53,0.00,,,0.01,WeatherCatV2.22B31,2017-07-26 19:25:00,
2017-07-26 15:30:00,81.2,64.0,30.09,NNE,20,0.0,0.0,56,0.00,,,0.01,WeatherCatV2.22B31,2017-07-26 19:30:00,
2017-07-26 15:35:00,81.4,64.2,30.09,NNE,20,0.0,0.0,56,0.00,,,0.01,WeatherCatV2.22B31,2017-07-26 19:35:00,
2017-07-26 15:40:00,81.4,63.7,30.09,NNE,20,0.0,0.0,55,0.00,,,0.01,WeatherCatV2.22B31,2017-07-26 19:40:00,